Weather in Kazatkul

Russia / Novosibirsk Oblast     55°01′43″N   76°02′47″E
temp.,
°C
wind,
m/s
gust,
m/s
humid.,
%
clouds,
%
prec.,
mm/h
press.,
hPa
HPBL,
m
1 march, mon
mon101:00−13e71295100 0.8 1013371
04:00−12ene61094100 0.9 1010332
07:00−14ene599598 1.1 1009239
10:00−13ene5995100 0.3 1009274
13:00−11ne5794100 0.5 1008303
16:00−11ne5794100 0.4 1008324
19:00−12nne4794100 0.7 1010316
22:00−14n359693 0.1 1011142
2 march, tue
tue201:00−18n339884 0.2 101426
04:00−20nnw239959 0.0 101420
07:00−21nw2210047 0.0 101620
10:00−21wnw129836 0.0 101620
13:00−16wsw229047 0.0 1016230
16:00−14sw228999 0.0 1016315
19:00−15ssw2296100 0.1 101526
22:00−16ssw229689 0.1 101521
3 march, wed
wed301:00−17ssw229782 0.1 101521
04:00−17sw229683 0.1 101531
07:00−16ssw239683 0.1 101561
10:00−17ssw359776 0.1 1015118
13:00−13ssw579482 0.1 1016321
16:00−13ssw6992100 0.0 1015420
19:00−14s6129299 0.0 1015456
22:00−12ssw61294100 0.3 1014508
4 march, thu
thu401:00−10ssw71393100 0.6 1013490
04:00−8ssw71393100 0.4 1010509
07:00−5ssw81494100 1.1 1010602
10:00−4ssw81494100 0.3 1008710
13:00−2ssw91493100 0.7 1008786
16:00−1ssw91494100 0.4 1006874
19:00−2ssw81494100 0.9 1006851
22:00−2ssw81594100 0.3 1004807
5 march, fri
fri501:00−1ssw91691100 0.7 1003872
04:00−2ssw7139297 0.0 1002573
07:00−2wsw6109699 0.1 1004637
10:00−8w6129290 0.2 1008384
13:00−8w7118756 0.2 1012492
16:00−8sw711871 0.0 1014498
19:00−8ssw9178751 0.0 1013706
22:00−6sw101893100 0.4 10111049